Zurück zum Katalog

NIMBUS 5

AktivWetterSSO
NORAD 6305·PAYLOAD·🇺🇸 United States

Gestartet Dec 11, 1972 von Vandenberg Space Force Base

Loading…

Nächste Überflüge (nächste 24 Stunden)

TLE

AktuellSource: Space-Track

Epoche: Sep 14, 2026, 04:34 UTC

1 06305U 72097A   26257.19075521 -.00000024  00000-0  32898-4 0  9992
2 06305  99.7935 153.6890 0007775 294.3686 229.2286 13.44258960636686

Verfolge NIMBUS 5 in Echtzeit mit AllMySat

Download on the App Store